Regional Weather Roundup
Issued by NWS

Home | Current Version | Previous Version | Text Only | Print | Product List | Glossary Off
Versions: 1 2 3 4 5 6 7 8 9 10 11 12 13 14 15 16 17 18 19 20 21 22 23 24 25 26 27 28 29 30 31 32 33 34 35 36 37 38 39 40 41 42 43 44 45 46 47 48 49 50

864
ASUS45 KCYS 302110
RWRWY

WYOMING REGIONAL WEATHER ROUNDUP
NATIONAL WEATHER SERVICE CHEYENNE WY
300 PM MDT SAT APR 30 2016

NOTE:  "FAIR" INDICATES FEW OR NO CLOUDS BELOW 12,000 FEET
WITH NO SIGNIFICANT WEATHER AND/OR OBSTRUCTIONS TO VISIBILITY.

WYZ001-302200-
YELLOWSTONE NATIONAL PARK

CITY           SKY/WX    TMP DP  RH WIND       PRES   REMARKS
LK YELLOWSTONE   N/A     40  24  53 VRB6      30.13R
W YELLOWSTONE  NOT AVBL

$$
WYZ002>013-054>058-071-098>099-302200-
NORTHERN WYOMING

CITY           SKY/WX    TMP DP  RH WIND       PRES   REMARKS
JACKSON        CLOUDY    48  30  49 NE12G22   30.03R
CODY           CLOUDY    45  32  61 NW18G24   30.16R
GREYBULL       CLOUDY    55  33  43 SE6       30.08R
WORLAND        CLOUDY    49  39  68 SW8       30.11R
SHERIDAN       CLOUDY    47  34  60 CALM      30.20R
BUFFALO          N/A    N/A N/A N/A MISG      30.19S
GILLETTE       CLOUDY    45  34  65 N14       30.15R
HULETT         CLOUDY    46  34  61 NE10G17   30.16S
NEWCASTLE      MOCLDY    45  28  53 N12G21    30.11R

$$
WYZ014>020-022>026-101>103-302200-
CENTRAL WYOMING

CITY           SKY/WX    TMP DP  RH WIND       PRES   REMARKS
BIG PINEY      CLOUDY    45  28  51 SW6       30.04S
PINEDALE       CLOUDY    46  23  39 NE17G24   30.05R
DUBOIS         CLOUDY    43  32  65 S22       30.08R
LANDER         LGT RAIN  38  34  85 E7        30.13R WCI  33
RIVERTON       LGT RAIN  41  36  82 NE7       30.13S
CASPER         LGT RAIN  37  33  85 NE17      30.12R FOG     WCI  27
DOUGLAS        CLOUDY    38  34  85 NE7       30.12R WCI  33

$$
WYZ021-027>030-104>119-302200-
SOUTHERN WYOMING

CITY           SKY/WX    TMP DP  RH WIND       PRES   REMARKS
EVANSTON       CLOUDY    41  29  62 E18G26    30.04R
KEMMERER         N/A     37  32  81 SE15      30.06R WCI  28
FORT BRIDGER   LGT SNOW  37  37 100 E12       30.10R WCI  30
ROCK SPRINGS   CLOUDY    39  31  72 NE29G36   30.07R WCI  27
DIXON          FAIR      43  25  49 N23G29    30.02S
RAWLINS        CLOUDY    35  31  85 NE12      30.07S FOG     WCI  27
SARATOGA       FAIR      36  28  75 NE18G25   30.04S WCI  25
LARAMIE        LGT SNOW  31  25  78 N12       30.04R WCI  22
CHEYENNE       SNOW      33  30  88 N16G29    30.02R VSB 1/2 WCI  23
TORRINGTON     LGT RAIN  38  35  89 N13G21    30.05R WCI  30
PINE BLUFFS    LGT SNOW  34  32  93 N24G33    30.01R WCI  21

$$




USA.gov is the U.S. government's official web portal to all federal, state and local government web resources and services.